Change the Weather History Date:

Saturday, August 10, 2013

  Actual Average (KORH) Record (KORH)
Temperature  
Mean Temperature 73 °F 70 °F  
Max Temperature 82 °F 78 °F 97 °F (1949)
Min Temperature 63 °F 61 °F 45 °F (1933)
Degree Days  
Heating Degree Days 0 1  
Month to date heating degree days 1  
Since 1 June heating degree days 98  
Since 1 July heating degree days 15  
Cooling Degree Days 8 5  
Month to date cooling degree days 56  
Year to date cooling degree days 337  
Since 1 June cooling degree days 315  
Growing Degree Days 23 (Base 50)    
Moisture  
Dew Point 58 °F    
Average Humidity 62    
Maximum Humidity 87    
Minimum Humidity 39    
Precipitation  
Precipitation 0.00 in 0.13 in 2.02 in (1952)
Month to date precipitation 1.33  
Year to date precipitation 28.98  
Sea Level Pressure  
Sea Level Pressure 29.92 in    
Wind  
Wind Speed 6 mph (WNW)    
Max Wind Speed 16 mph    
Max Gust Speed 24 mph    
Visibility 10 miles    
Events      
T = Trace of Precipitation, MM = Missing Value Source: NWS Daily Summary

Daily Weather History Graph

Daily Weather History Graph

Search for Another Location

Airport or City:

Trip Planner

Search our weather history database for the weather conditions in past years. The results will help you decide how hot, cold, wet, or windy it might be!

Date:

Astronomy

Aug. 10, 2013 Rise Set
Actual Time 5:48 AM EDT 7:55 PM EDT
Civil Twilight 5:17 AM EDT 8:26 PM EDT
Nautical Twilight 4:39 AM EDT 9:03 PM EDT
Astronomical Twilight 3:58 AM EDT 9:45 PM EDT
Moon 9:38 AM EDT (8/10) 9:28 PM EDT (8/10)
Length of Visible Light 15h 08m
Length of Day
14h 06m
Waxing Crescent, 14% of the Moon is Illuminated
Aug 10
Waxing Crescent
Aug 14
First Quarter
Aug 20
Full
Aug 28
Last Quarter
Sep 5
New

Hourly Weather History & Observations

Time (EDT) Temp. Heat Index Dew Point Humidity Pressure Visibility Wind Dir Wind Speed Gust Speed Precip Events Conditions
12:52 AM 73.0 °F - 69.1 °F 87% 29.81 in 10.0 mi Calm Calm - N/A   Clear
1:52 AM 72.0 °F - 68.0 °F 87% 29.82 in 10.0 mi Calm Calm - N/A   Clear
2:52 AM 71.1 °F - 66.9 °F 87% 29.83 in 10.0 mi North 3.5 mph - N/A   Clear
3:52 AM 70.0 °F - 64.9 °F 84% 29.85 in 10.0 mi West 3.5 mph - N/A   Clear
4:52 AM 69.1 °F - 63.0 °F 81% 29.86 in 10.0 mi Calm Calm - N/A   Clear
5:52 AM 66.9 °F - 62.1 °F 84% 29.88 in 10.0 mi NNW 3.5 mph - N/A   Clear
6:52 AM 68.0 °F - 61.0 °F 78% 29.90 in 10.0 mi NNW 4.6 mph - N/A   Clear
7:52 AM 71.1 °F - 61.0 °F 70% 29.91 in 10.0 mi NW 6.9 mph - N/A   Clear
8:52 AM 73.0 °F - 59.0 °F 61% 29.91 in 10.0 mi WNW 11.5 mph - N/A   Clear
9:52 AM 73.9 °F - 60.1 °F 62% 29.91 in 10.0 mi West 11.5 mph - N/A   Clear
10:52 AM 78.1 °F - 60.1 °F 54% 29.91 in 10.0 mi West 12.7 mph 19.6 mph N/A   Clear
11:52 AM 79.0 °F - 59.0 °F 50% 29.90 in 10.0 mi West 16.1 mph - N/A   Clear
12:52 PM 81.0 °F 81.0 °F 57.0 °F 44% 29.90 in 10.0 mi West 16.1 mph 24.2 mph N/A   Partly Cloudy
1:52 PM 82.0 °F 81.4 °F 55.0 °F 39% 29.91 in 10.0 mi WNW 11.5 mph 18.4 mph N/A   Scattered Clouds
2:52 PM 82.0 °F 81.6 °F 55.9 °F 41% 29.91 in 10.0 mi West 12.7 mph - N/A   Partly Cloudy
3:52 PM 82.0 °F 81.4 °F 55.0 °F 39% 29.91 in 10.0 mi WNW 16.1 mph - N/A   Clear
4:52 PM 80.1 °F 79.9 °F 53.1 °F 39% 29.93 in 10.0 mi West 8.1 mph - N/A   Clear
5:52 PM 79.0 °F - 53.1 °F 40% 29.94 in 10.0 mi West 10.4 mph 18.4 mph N/A   Clear
6:52 PM 77.0 °F - 50.0 °F 39% 29.96 in 10.0 mi WNW 11.5 mph 18.4 mph N/A   Clear
7:52 PM 72.0 °F - 54.0 °F 53% 29.97 in 10.0 mi West 3.5 mph - N/A   Clear
8:52 PM 68.0 °F - 53.1 °F 59% 29.99 in 10.0 mi WNW 6.9 mph - N/A   Clear
9:52 PM 66.0 °F - 54.0 °F 65% 30.01 in 10.0 mi North 4.6 mph - N/A   Clear
10:52 PM 64.0 °F - 53.1 °F 67% 30.02 in 10.0 mi NNW 3.5 mph - N/A   Clear
11:52 PM 63.0 °F - 52.0 °F 67% 30.04 in 10.0 mi NNW 10.4 mph - N/A   Clear